| time (UTC) | temp F | wind direction | speed knots | gust knots | rain 1hr in | rain 24hr in | rain mn in | humidity % | barometer mb |
| 20260507082058 | 48 | 17 | 0.0 | 0.0 | 0.00 | 0.00 | 0.00 | 73 | 1020.2 |
| 20260507081555 | 48 | 18 | 0.0 | 0.0 | 0.00 | 0.00 | 0.00 | 74 | 1020.1 |
| 20260507081052 | 48 | 18 | 0.0 | 0.0 | 0.00 | 0.00 | 0.00 | 74 | 1020.1 |
| 20260507080548 | 48 | 18 | 0.0 | 0.0 | 0.00 | 0.00 | 0.00 | 73 | 1020.1 |
| 20260507080045 | 48 | 18 | 0.0 | 0.0 | 0.00 | 0.00 | 0.00 | 73 | 1020.0 |
| 20260507075539 | 48 | 19 | 0.0 | 0.0 | 0.00 | 0.00 | 0.00 | 73 | 1019.9 |
| 20260507075036 | 49 | 19 | 0.0 | 0.0 | 0.00 | 0.00 | 0.00 | 73 | 1020.0 |
| 20260507074533 | 48 | 21 | 0.0 | 0.0 | 0.00 | 0.00 | 0.00 | 73 | 1020.1 |
| 20260507074032 | 48 | 20 | 0.0 | 0.0 | 0.00 | 0.00 | 0.00 | 73 | 1020.3 |
| 20260507073527 | 48 | 20 | 0.0 | 0.0 | 0.00 | 0.00 | 0.00 | 73 | 1020.0 |
| 20260507073024 | 49 | 20 | 0.0 | 0.0 | 0.00 | 0.00 | 0.00 | 73 | 1020.1 |
| 20260507072522 | 49 | 20 | 0.0 | 0.0 | 0.00 | 0.00 | 0.00 | 73 | 1019.9 |
| 20260507072019 | 48 | 24 | 0.0 | 0.0 | 0.00 | 0.00 | 0.00 | 73 | 1020.1 |
| 20260507071516 | 49 | 17 | 0.0 | 0.0 | 0.00 | 0.00 | 0.00 | 73 | 1020.1 |
| 20260507071012 | 49 | 17 | 0.0 | 0.0 | 0.00 | 0.00 | 0.00 | 72 | 1020.2 |
| 20260507070510 | 49 | 17 | 0.0 | 0.0 | 0.00 | 0.00 | 0.00 | 72 | 1020.5 |
| 20260507070010 | 49 | 17 | 0.0 | 0.0 | 0.00 | 0.00 | 0.00 | 71 | 1020.2 |
| 20260507065503 | 50 | 17 | 0.0 | 0.0 | 0.00 | 0.00 | 0.00 | 71 | 1020.2 |
| 20260507065000 | 49 | 19 | 0.0 | 0.0 | 0.00 | 0.00 | 0.00 | 71 | 1020.5 |
| 20260507064458 | 49 | 14 | 0.0 | 0.0 | 0.00 | 0.00 | 0.00 | 72 | 1020.4 |
| 20260507063956 | 50 | 14 | 0.0 | 0.0 | 0.00 | 0.00 | 0.00 | 72 | 1020.8 |
| 20260507063453 | 50 | 14 | 0.0 | 0.0 | 0.00 | 0.00 | 0.00 | 72 | 1020.6 |
| 20260507062949 | 50 | 14 | 0.0 | 0.0 | 0.00 | 0.00 | 0.00 | 71 | 1020.7 |
| 20260507062447 | 50 | 15 | 0.0 | 0.0 | 0.00 | 0.00 | 0.00 | 71 | 1020.4 |
| 20260507061944 | 50 | 15 | 0.0 | 0.0 | 0.00 | 0.00 | 0.00 | 71 | 1020.6 |
| 20260507061442 | 50 | 18 | 0.0 | 0.0 | 0.00 | 0.00 | 0.00 | 71 | 1020.5 |
| 20260507060940 | 50 | 20 | 0.0 | 0.0 | 0.00 | 0.00 | 0.00 | 70 | 1020.3 |
| 20260507060437 | 50 | 15 | 0.0 | 0.0 | 0.00 | 0.00 | 0.00 | 70 | 1020.4 |
| 20260507055933 | 50 | 15 | 0.0 | 0.0 | 0.00 | 0.00 | 0.00 | 70 | 1020.3 |
| 20260507055429 | 51 | 14 | 0.0 | 0.0 | 0.00 | 0.00 | 0.00 | 69 | 1020.2 |
| 20260507054926 | 50 | 35 | 0.0 | 0.0 | 0.00 | 0.00 | 0.00 | 70 | 1020.0 |
| 20260507054422 | 50 | 16 | 0.0 | 0.0 | 0.00 | 0.00 | 0.00 | 70 | 1020.1 |
| 20260507053919 | 50 | 17 | 0.0 | 0.0 | 0.00 | 0.00 | 0.00 | 69 | 1020.2 |
| 20260507053417 | 51 | 15 | 0.0 | 0.0 | 0.00 | 0.00 | 0.00 | 69 | 1020.3 |
| 20260507052915 | 51 | 15 | 0.0 | 0.0 | 0.00 | 0.00 | 0.00 | 68 | 1020.1 |
| 20260507052412 | 51 | 16 | 0.0 | 0.0 | 0.00 | 0.00 | 0.00 | 68 | 1020.3 |
| 20260507051908 | 51 | 17 | 0.0 | 0.0 | 0.00 | 0.00 | 0.00 | 67 | 1020.1 |
| 20260507051406 | 52 | 21 | 0.0 | 0.0 | 0.00 | 0.00 | 0.00 | 66 | 1020.1 |
| 20260507050903 | 52 | 21 | 0.0 | 0.0 | 0.00 | 0.00 | 0.00 | 67 | 1020.1 |
| 20260507050359 | 52 | 20 | 0.0 | 0.0 | 0.00 | 0.00 | 0.00 | 67 | 1020.0 |
| 20260507045856 | 52 | 18 | 0.0 | 0.0 | 0.00 | 0.00 | 0.00 | 67 | 1020.1 |
| 20260507045353 | 52 | 17 | 0.0 | 0.0 | 0.00 | 0.00 | 0.00 | 67 | 1020.1 |
| 20260507044850 | 52 | 20 | 0.0 | 0.0 | 0.00 | 0.00 | 0.00 | 67 | 1020.0 |
| 20260507044346 | 52 | 20 | 0.0 | 0.0 | 0.00 | 0.00 | 0.00 | 66 | 1020.0 |
| 20260507043842 | 51 | 20 | 0.0 | 0.0 | 0.00 | 0.00 | 0.00 | 66 | 1019.9 |
| 20260507043339 | 51 | 20 | 0.0 | 0.0 | 0.00 | 0.00 | 0.00 | 66 | 1020.1 |
| 20260507042831 | 52 | 20 | 0.0 | 0.0 | 0.00 | 0.00 | 0.00 | 66 | 1019.9 |
| 20260507042326 | 52 | 20 | 0.0 | 0.0 | 0.00 | 0.00 | 0.00 | 66 | 1019.9 |
| 20260507041823 | 52 | 20 | 0.0 | 0.0 | 0.00 | 0.00 | 0.00 | 65 | 1020.1 |
| 20260507041319 | 52 | 20 | 0.0 | 0.0 | 0.00 | 0.00 | 0.00 | 65 | 1019.9 |
| 20260507040817 | 53 | 20 | 0.0 | 0.0 | 0.00 | 0.00 | 0.00 | 65 | 1019.9 |
| 20260507040313 | 53 | 20 | 0.0 | 0.0 | 0.00 | 0.00 | 0.00 | 64 | 1019.9 |
| 20260507035809 | 53 | 20 | 0.0 | 0.0 | 0.00 | 0.00 | 0.00 | 64 | 1019.9 |
| 20260507035306 | 53 | 20 | 0.0 | 0.0 | 0.00 | 0.00 | 0.00 | 63 | 1020.0 |
| 20260507034803 | 53 | 20 | 0.0 | 0.0 | 0.00 | 0.00 | 0.00 | 62 | 1020.2 |
| 20260507034259 | 54 | 20 | 0.0 | 0.0 | 0.00 | 0.00 | 0.00 | 62 | 1019.9 |
| 20260507033757 | 54 | 20 | 0.0 | 0.0 | 0.00 | 0.00 | 0.00 | 61 | 1019.9 |
| 20260507033255 | 54 | 20 | 0.0 | 0.0 | 0.00 | 0.00 | 0.00 | 60 | 1019.7 |
| 20260507032751 | 55 | 19 | 0.0 | 0.0 | 0.00 | 0.00 | 0.00 | 59 | 1019.8 |
| 20260507032247 | 55 | 21 | 0.0 | 0.0 | 0.00 | 0.00 | 0.00 | 59 | 1019.8 |
| 20260507031744 | 55 | 28 | 0.0 | 0.9 | 0.00 | 0.00 | 0.00 | 59 | 1019.5 |
| 20260507031241 | 55 | 9 | 0.0 | 0.0 | 0.00 | 0.00 | 0.00 | 58 | 1019.7 |
| 20260507030738 | 55 | 19 | 0.0 | 0.0 | 0.00 | 0.00 | 0.00 | 58 | 1019.7 |
| 20260507030235 | 56 | 21 | 0.9 | 1.7 | 0.00 | 0.00 | 0.00 | 57 | 1019.6 |
| 20260507025732 | 56 | 21 | 0.0 | 0.0 | 0.00 | 0.00 | 0.00 | 57 | 1019.7 |
| 20260507025229 | 56 | 20 | 0.0 | 0.0 | 0.00 | 0.00 | 0.00 | 57 | 1019.6 |
| 20260507024728 | 56 | 19 | 0.0 | 0.0 | 0.00 | 0.00 | 0.00 | 57 | 1019.5 |
| 20260507024224 | 56 | 22 | 0.0 | 0.0 | 0.00 | 0.00 | 0.00 | 57 | 1019.4 |
| 20260507023720 | 56 | 39 | 0.9 | 0.9 | 0.00 | 0.00 | 0.00 | 57 | 1019.4 |
| 20260507023217 | 56 | 21 | 0.0 | 0.0 | 0.00 | 0.00 | 0.00 | 56 | 1019.4 |
| 20260507022715 | 57 | 18 | 0.0 | 0.0 | 0.00 | 0.00 | 0.00 | 56 | 1019.2 |
| 20260507022210 | 57 | 29 | 0.0 | 0.0 | 0.00 | 0.00 | 0.00 | 55 | 1019.1 |
| 20260507021707 | 57 | 18 | 0.0 | 0.0 | 0.00 | 0.00 | 0.00 | 55 | 1019.1 |
| 20260507021202 | 57 | 34 | 0.9 | 0.9 | 0.00 | 0.00 | 0.00 | 55 | 1019.2 |
| 20260507020701 | 57 | 10 | 0.0 | 0.0 | 0.00 | 0.00 | 0.00 | 54 | 1019.1 |
| 20260507020156 | 57 | 34 | 0.9 | 1.7 | 0.00 | 0.00 | 0.00 | 54 | 1018.9 |
| 20260507015655 | 58 | 22 | 0.9 | 0.9 | 0.00 | 0.00 | 0.00 | 54 | 1018.9 |
| 20260507015152 | 58 | 64 | 0.9 | 1.7 | 0.00 | 0.00 | 0.00 | 53 | 1018.9 |
| 20260507014648 | 58 | 8 | 0.0 | 0.0 | 0.00 | 0.00 | 0.00 | 53 | 1019.0 |
| 20260507014144 | 58 | 16 | 0.0 | 0.0 | 0.00 | 0.00 | 0.00 | 53 | 1018.8 |
| 20260507013641 | 59 | 16 | 1.7 | 3.5 | 0.00 | 0.00 | 0.00 | 51 | 1018.9 |
| 20260507013138 | 59 | 8 | 1.7 | 2.6 | 0.00 | 0.00 | 0.00 | 51 | 1018.4 |
| 20260507012636 | 59 | 32 | 0.0 | 0.9 | 0.00 | 0.00 | 0.00 | 51 | 1018.3 |
| 20260507012131 | 59 | 18 | 0.0 | 0.0 | 0.00 | 0.00 | 0.00 | 51 | 1018.4 |
| 20260507011630 | 60 | 12 | 0.0 | 0.9 | 0.00 | 0.00 | 0.00 | 51 | 1018.4 |
| 20260507011125 | 60 | 20 | 0.0 | 0.0 | 0.00 | 0.00 | 0.00 | 50 | 1018.1 |
| 20260507010620 | 60 | 11 | 0.0 | 0.0 | 0.00 | 0.00 | 0.00 | 50 | 1018.3 |
| 20260507010116 | 60 | 52 | 0.0 | 0.0 | 0.00 | 0.00 | 0.00 | 50 | 1018.3 |
| 20260507005614 | 60 | 21 | 0.0 | 0.9 | 0.00 | 0.00 | 0.00 | 49 | 1018.2 |
| 20260507005110 | 61 | 17 | 0.0 | 0.0 | 0.00 | 0.00 | 0.00 | 49 | 1018.3 |
| 20260507004607 | 61 | 21 | 0.0 | 0.9 | 0.00 | 0.00 | 0.00 | 48 | 1018.0 |
| 20260507004104 | 61 | 140 | 1.7 | 2.6 | 0.00 | 0.00 | 0.00 | 47 | 1018.0 |
| 20260507003600 | 61 | 14 | 0.0 | 0.9 | 0.00 | 0.00 | 0.00 | 47 | 1018.0 |
| 20260507003055 | 62 | 5 | 0.9 | 0.9 | 0.00 | 0.00 | 0.00 | 46 | 1017.9 |
| 20260507002552 | 62 | 32 | 2.6 | 3.5 | 0.00 | 0.00 | 0.00 | 45 | 1018.1 |
| 20260507002048 | 62 | 49 | 0.9 | 2.6 | 0.00 | 0.00 | 0.00 | 47 | 1017.9 |
| 20260507001545 | 62 | 63 | 2.6 | 3.5 | 0.00 | 0.00 | 0.00 | 45 | 1017.8 |
| 20260507001042 | 62 | 48 | 0.9 | 1.7 | 0.00 | 0.00 | 0.00 | 46 | 1017.8 |
| 20260507000538 | 62 | 153 | 1.7 | 3.5 | 0.00 | 0.00 | 0.00 | 45 | 1017.8 |
| 20260507000028 | 62 | 19 | 1.7 | 2.6 | 0.00 | 0.00 | 0.00 | 46 | 1017.7 |
| 20260506235525 | 62 | 106 | 2.6 | 3.5 | 0.00 | 0.00 | 0.00 | 46 | 1017.8 |
| 20260506235015 | 63 | 62 | 1.7 | 2.6 | 0.00 | 0.00 | 0.00 | 47 | 1017.8 |
| 20260506234513 | 63 | 9 | 0.9 | 1.7 | 0.00 | 0.00 | 0.00 | 46 | 1017.7 |
| 20260506234010 | 63 | 97 | 0.9 | 1.7 | 0.00 | 0.00 | 0.00 | 45 | 1017.8 |
| 20260506233507 | 63 | 43 | 0.9 | 0.9 | 0.00 | 0.00 | 0.00 | 45 | 1017.6 |
| 20260506233004 | 63 | 29 | 0.9 | 1.7 | 0.00 | 0.00 | 0.00 | 45 | 1017.6 |
| 20260506232500 | 63 | 93 | 3.5 | 3.5 | 0.00 | 0.00 | 0.00 | 44 | 1017.4 |
| 20260506231955 | 64 | 56 | 2.6 | 5.2 | 0.00 | 0.00 | 0.00 | 44 | 1017.7 |
| 20260506231453 | 64 | 96 | 2.6 | 3.5 | 0.00 | 0.00 | 0.00 | 44 | 1017.8 |
| 20260506230950 | 63 | 38 | 4.3 | 6.1 | 0.00 | 0.00 | 0.00 | 45 | 1017.4 |
| 20260506230445 | 64 | 65 | 1.7 | 2.6 | 0.00 | 0.00 | 0.00 | 44 | 1017.5 |
| 20260506225937 | 64 | 70 | 4.3 | 6.1 | 0.00 | 0.00 | 0.00 | 44 | 1017.4 |
| 20260506225435 | 65 | 11 | 2.6 | 5.2 | 0.00 | 0.00 | 0.00 | 44 | 1017.2 |
| 20260506224931 | 64 | 49 | 2.6 | 3.5 | 0.00 | 0.00 | 0.00 | 44 | 1017.2 |
| 20260506224429 | 65 | 43 | 2.6 | 5.2 | 0.00 | 0.00 | 0.00 | 45 | 1017.2 |
| 20260506223925 | 64 | 15 | 1.7 | 1.7 | 0.00 | 0.00 | 0.00 | 46 | 1017.2 |
| 20260506223420 | 64 | 48 | 2.6 | 3.5 | 0.00 | 0.00 | 0.00 | 46 | 1017.0 |
| 20260506222918 | 63 | 42 | 3.5 | 5.2 | 0.00 | 0.00 | 0.00 | 46 | 1017.0 |
| 20260506222414 | 63 | 131 | 2.6 | 3.5 | 0.00 | 0.00 | 0.00 | 46 | 1017.0 |
| 20260506221911 | 62 | 71 | 1.7 | 2.6 | 0.00 | 0.00 | 0.00 | 47 | 1017.1 |
| 20260506221409 | 63 | 101 | 0.9 | 2.6 | 0.00 | 0.00 | 0.00 | 48 | 1017.0 |
| 20260506220906 | 63 | 33 | 2.6 | 2.6 | 0.00 | 0.00 | 0.00 | 47 | 1017.0 |
| 20260506220401 | 63 | 14 | 1.7 | 1.7 | 0.00 | 0.00 | 0.00 | 47 | 1017.0 |
| 20260506215858 | 63 | 122 | 1.7 | 2.6 | 0.00 | 0.00 | 0.00 | 48 | 1016.8 |
| 20260506215354 | 64 | 114 | 3.5 | 5.2 | 0.00 | 0.00 | 0.00 | 47 | 1017.0 |
| 20260506214850 | 63 | 18 | 1.7 | 1.7 | 0.00 | 0.00 | 0.00 | 47 | 1017.0 |
| 20260506214347 | 64 | 358 | 2.6 | 5.2 | 0.00 | 0.00 | 0.00 | 47 | 1016.9 |
| 20260506213845 | 64 | 79 | 3.5 | 5.2 | 0.00 | 0.00 | 0.00 | 45 | 1017.1 |
| 20260506213342 | 65 | 64 | 5.2 | 7.0 | 0.00 | 0.00 | 0.00 | 44 | 1017.1 |
| 20260506212839 | 65 | 8 | 1.7 | 2.6 | 0.00 | 0.00 | 0.00 | 44 | 1017.0 |
| 20260506212335 | 64 | 13 | 2.6 | 3.5 | 0.00 | 0.00 | 0.00 | 46 | 1017.1 |
| 20260506211830 | 65 | 35 | 1.7 | 1.7 | 0.00 | 0.00 | 0.00 | 46 | 1016.9 |
| 20260506211326 | 64 | 32 | 1.7 | 1.7 | 0.00 | 0.00 | 0.00 | 45 | 1016.8 |
| 20260506210824 | 65 | 29 | 0.9 | 0.9 | 0.00 | 0.00 | 0.00 | 46 | 1017.0 |
| 20260506210320 | 65 | 355 | 0.9 | 0.9 | 0.00 | 0.00 | 0.00 | 48 | 1017.2 |
| 20260506205818 | 64 | 92 | 3.5 | 5.2 | 0.00 | 0.00 | 0.00 | 46 | 1017.0 |
| 20260506205313 | 65 | 116 | 3.5 | 6.1 | 0.00 | 0.00 | 0.00 | 44 | 1016.9 |
| 20260506204810 | 64 | 11 | 0.0 | 0.9 | 0.00 | 0.00 | 0.00 | 45 | 1017.3 |
| 20260506204308 | 63 | 8 | 0.9 | 1.7 | 0.00 | 0.00 | 0.00 | 46 | 1017.5 |
| 20260506203805 | 63 | 34 | 3.5 | 5.2 | 0.00 | 0.00 | 0.00 | 45 | 1017.5 |
| 20260506203302 | 64 | 60 | 2.6 | 2.6 | 0.00 | 0.00 | 0.00 | 47 | 1017.6 |
| 20260506202759 | 64 | 352 | 2.6 | 3.5 | 0.00 | 0.00 | 0.00 | 46 | 1017.8 |
| 20260506202256 | 63 | 49 | 4.3 | 6.1 | 0.00 | 0.00 | 0.00 | 49 | 1017.6 |
| 20260506201752 | 63 | 65 | 2.6 | 3.5 | 0.00 | 0.00 | 0.00 | 50 | 1017.7 |
| 20260506201249 | 63 | 29 | 1.7 | 1.7 | 0.00 | 0.00 | 0.00 | 49 | 1017.8 |
| 20260506200747 | 63 | 38 | 0.9 | 1.7 | 0.00 | 0.00 | 0.00 | 51 | 1017.8 |
| 20260506200243 | 62 | 118 | 0.9 | 1.7 | 0.00 | 0.00 | 0.00 | 52 | 1017.7 |
| 20260506195739 | 63 | 113 | 4.3 | 5.2 | 0.00 | 0.00 | 0.00 | 48 | 1017.8 |
| 20260506195236 | 62 | 58 | 0.9 | 1.7 | 0.00 | 0.00 | 0.00 | 51 | 1017.6 |
| 20260506194733 | 62 | 35 | 4.3 | 5.2 | 0.00 | 0.00 | 0.00 | 50 | 1017.5 |
| 20260506194230 | 62 | 43 | 2.6 | 3.5 | 0.00 | 0.00 | 0.00 | 50 | 1017.8 |
| 20260506193728 | 62 | 131 | 4.3 | 6.1 | 0.00 | 0.00 | 0.00 | 49 | 1017.7 |
| 20260506193224 | 62 | 46 | 2.6 | 3.5 | 0.00 | 0.00 | 0.00 | 51 | 1017.7 |
| 20260506192720 | 62 | 44 | 4.3 | 5.2 | 0.00 | 0.00 | 0.00 | 50 | 1017.8 |
| 20260506192217 | 62 | 128 | 2.6 | 3.5 | 0.00 | 0.00 | 0.00 | 51 | 1017.9 |
| 20260506191714 | 62 | 7 | 0.9 | 1.7 | 0.00 | 0.00 | 0.00 | 51 | 1017.9 |
| 20260506191210 | 62 | 102 | 1.7 | 1.7 | 0.00 | 0.00 | 0.00 | 52 | 1018.0 |
| 20260506190708 | 63 | 107 | 1.7 | 3.5 | 0.00 | 0.00 | 0.00 | 50 | 1018.1 |
| 20260506190204 | 63 | 30 | 1.7 | 2.6 | 0.00 | 0.00 | 0.00 | 52 | 1018.2 |
| 20260506185701 | 62 | 112 | 3.5 | 5.2 | 0.00 | 0.00 | 0.00 | 52 | 1018.4 |
| 20260506185158 | 61 | 118 | 2.6 | 2.6 | 0.00 | 0.00 | 0.00 | 51 | 1018.1 |
| 20260506184650 | 61 | 68 | 3.5 | 3.5 | 0.00 | 0.00 | 0.00 | 52 | 1018.4 |
| 20260506184147 | 61 | 175 | 5.2 | 7.0 | 0.00 | 0.00 | 0.00 | 54 | 1018.4 |
| 20260506183643 | 60 | 42 | 1.7 | 2.6 | 0.00 | 0.00 | 0.00 | 54 | 1018.5 |
| 20260506183139 | 61 | 68 | 0.9 | 1.7 | 0.00 | 0.00 | 0.00 | 54 | 1018.5 |
| 20260506182637 | 62 | 112 | 1.7 | 2.6 | 0.00 | 0.00 | 0.00 | 53 | 1018.6 |
| 20260506182133 | 62 | 166 | 3.5 | 5.2 | 0.00 | 0.00 | 0.00 | 54 | 1018.6 |
| 20260506181631 | 61 | 0 | 1.7 | 2.6 | 0.00 | 0.00 | 0.00 | 52 | 1018.7 |
| 20260506181128 | 60 | 50 | 3.5 | 5.2 | 0.00 | 0.00 | 0.00 | 53 | 1018.7 |
| 20260506180625 | 60 | 44 | 0.0 | 0.9 | 0.00 | 0.00 | 0.00 | 55 | 1018.9 |
| 20260506180121 | 60 | 108 | 3.5 | 7.0 | 0.00 | 0.00 | 0.00 | 52 | 1018.5 |
| 20260506175618 | 61 | 117 | 3.5 | 3.5 | 0.00 | 0.00 | 0.00 | 53 | 1018.7 |
| 20260506175114 | 62 | 110 | 1.7 | 2.6 | 0.00 | 0.00 | 0.00 | 54 | 1018.6 |
| 20260506174613 | 62 | 126 | 2.6 | 3.5 | 0.00 | 0.00 | 0.00 | 52 | 1018.7 |
| 20260506174109 | 62 | 116 | 1.7 | 1.7 | 0.00 | 0.00 | 0.00 | 53 | 1018.9 |
| 20260506173607 | 60 | 101 | 3.5 | 6.1 | 0.00 | 0.00 | 0.00 | 54 | 1018.9 |
| 20260506173103 | 60 | 9 | 1.7 | 2.6 | 0.00 | 0.00 | 0.00 | 53 | 1019.0 |
| 20260506172601 | 61 | 27 | 0.9 | 0.9 | 0.00 | 0.00 | 0.00 | 53 | 1019.1 |
| 20260506172051 | 60 | 31 | 2.6 | 2.6 | 0.00 | 0.00 | 0.00 | 53 | 1019.4 |
| 20260506171548 | 60 | 81 | 3.5 | 3.5 | 0.00 | 0.00 | 0.00 | 53 | 1019.5 |
| 20260506171046 | 61 | 152 | 4.3 | 5.2 | 0.00 | 0.00 | 0.00 | 57 | 1019.9 |
| 20260506170543 | 60 | 111 | 4.3 | 5.2 | 0.00 | 0.00 | 0.00 | 54 | 1019.8 |
| 20260506170036 | 60 | 90 | 1.7 | 2.6 | 0.00 | 0.00 | 0.00 | 54 | 1020.0 |
| 20260506165534 | 59 | 17 | 1.7 | 2.6 | 0.00 | 0.00 | 0.00 | 56 | 1020.0 |
| 20260506165030 | 59 | 31 | 2.6 | 2.6 | 0.00 | 0.00 | 0.00 | 55 | 1019.9 |
| 20260506164527 | 58 | 11 | 1.7 | 2.6 | 0.00 | 0.00 | 0.00 | 56 | 1020.0 |
| 20260506164024 | 58 | 54 | 1.7 | 3.5 | 0.00 | 0.00 | 0.00 | 57 | 1019.9 |
| 20260506163520 | 58 | 190 | 2.6 | 3.5 | 0.00 | 0.00 | 0.00 | 57 | 1019.8 |
| 20260506163016 | 58 | 47 | 2.6 | 3.5 | 0.00 | 0.00 | 0.00 | 56 | 1019.7 |
| 20260506162512 | 58 | 84 | 3.5 | 6.1 | 0.00 | 0.00 | 0.00 | 54 | 1019.5 |
| 20260506162009 | 59 | 21 | 7.0 | 11.3 | 0.00 | 0.00 | 0.00 | 53 | 1019.8 |
| 20260506161506 | 58 | 33 | 2.6 | 3.5 | 0.00 | 0.00 | 0.00 | 55 | 1019.7 |
| 20260506160958 | 58 | 81 | 5.2 | 7.0 | 0.00 | 0.00 | 0.00 | 54 | 1019.8 |
| 20260506160456 | 57 | 24 | 2.6 | 2.6 | 0.00 | 0.00 | 0.00 | 56 | 1019.5 |
| 20260506155953 | 57 | 62 | 5.2 | 7.0 | 0.00 | 0.00 | 0.00 | 56 | 1019.5 |
| 20260506155451 | 57 | 77 | 1.7 | 2.6 | 0.00 | 0.00 | 0.00 | 58 | 1019.4 |
| 20260506153622 | 56 | 22 | 1.7 | 1.7 | 0.00 | 0.00 | 0.00 | 62 | 1018.9 |
| 20260506153119 | 56 | 82 | 3.5 | 6.1 | 0.00 | 0.00 | 0.00 | 60 | 1018.8 |
| 20260506152616 | 56 | 59 | 2.6 | 3.5 | 0.00 | 0.00 | 0.00 | 60 | 1018.6 |
| 20260506152114 | 55 | 25 | 2.6 | 3.5 | 0.00 | 0.00 | 0.00 | 61 | 1018.5 |
| 20260506151612 | 55 | 114 | 4.3 | 6.1 | 0.00 | 0.00 | 0.00 | 60 | 1018.2 |
| 20260506151109 | 55 | 55 | 2.6 | 3.5 | 0.00 | 0.00 | 0.00 | 62 | 1018.1 |
| 20260506150606 | 54 | 97 | 3.5 | 6.1 | 0.00 | 0.00 | 0.00 | 62 | 1017.9 |
| 20260506145559 | 54 | 66 | 3.5 | 3.5 | 0.00 | 0.00 | 0.00 | 63 | 1018.2 |
| 20260506145057 | 53 | 38 | 2.6 | 3.5 | 0.00 | 0.00 | 0.00 | 63 | 1017.9 |
| 20260506144554 | 53 | 56 | 4.3 | 6.1 | 0.00 | 0.00 | 0.00 | 64 | 1017.9 |
| 20260506144050 | 53 | 98 | 1.7 | 3.5 | 0.00 | 0.00 | 0.00 | 65 | 1018.2 |
| 20260506143548 | 52 | 92 | 5.2 | 6.1 | 0.00 | 0.00 | 0.00 | 65 | 1018.3 |
| 20260506143046 | 52 | 40 | 5.2 | 7.8 | 0.00 | 0.00 | 0.00 | 66 | 1018.1 |
| 20260506142544 | 51 | 64 | 2.6 | 3.5 | 0.00 | 0.00 | 0.00 | 67 | 1018.2 |
| 20260506142042 | 52 | 85 | 4.3 | 6.1 | 0.00 | 0.00 | 0.00 | 66 | 1017.9 |
| 20260506141539 | 52 | 67 | 1.7 | 2.6 | 0.00 | 0.00 | 0.00 | 68 | 1018.1 |
| 20260506141037 | 51 | 65 | 1.7 | 1.7 | 0.00 | 0.00 | 0.00 | 68 | 1018.0 |
| 20260506140534 | 51 | 64 | 3.5 | 5.2 | 0.00 | 0.00 | 0.00 | 69 | 1018.0 |
| 20260506140032 | 51 | 115 | 1.7 | 2.6 | 0.00 | 0.00 | 0.00 | 70 | 1018.0 |
| 20260506135528 | 51 | 146 | 2.6 | 2.6 | 0.00 | 0.00 | 0.00 | 69 | 1018.0 |
| 20260506135024 | 50 | 63 | 3.5 | 6.1 | 0.00 | 0.00 | 0.00 | 70 | 1018.1 |
| 20260506134521 | 50 | 78 | 2.6 | 3.5 | 0.00 | 0.00 | 0.00 | 71 | 1018.5 |
| 20260506134017 | 50 | 102 | 0.9 | 1.7 | 0.00 | 0.00 | 0.00 | 71 | 1018.4 |
| 20260506133515 | 50 | 33 | 1.7 | 1.7 | 0.00 | 0.00 | 0.00 | 71 | 1018.5 |
| 20260506133011 | 50 | 92 | 5.2 | 7.0 | 0.00 | 0.00 | 0.00 | 71 | 1018.4 |
| 20260506132508 | 50 | 103 | 2.6 | 5.2 | 0.00 | 0.00 | 0.00 | 71 | 1018.5 |
| 20260506132006 | 50 | 82 | 2.6 | 3.5 | 0.00 | 0.00 | 0.00 | 72 | 1018.0 |
| 20260506131503 | 50 | 105 | 2.6 | 3.5 | 0.00 | 0.00 | 0.00 | 72 | 1018.2 |
| 20260506130959 | 50 | 43 | 2.6 | 5.2 | 0.00 | 0.00 | 0.00 | 72 | 1018.5 |
| 20260506130456 | 50 | 54 | 1.7 | 2.6 | 0.00 | 0.00 | 0.00 | 73 | 1018.2 |
| 20260506125953 | 50 | 64 | 1.7 | 2.6 | 0.00 | 0.00 | 0.00 | 74 | 1018.1 |
| 20260506125452 | 50 | 124 | 1.7 | 5.2 | 0.00 | 0.00 | 0.00 | 77 | 1018.0 |
| 20260506124949 | 49 | 58 | 2.6 | 3.5 | 0.00 | 0.00 | 0.00 | 77 | 1018.1 |
| 20260506124447 | 49 | 86 | 3.5 | 3.5 | 0.00 | 0.00 | 0.00 | 78 | 1017.9 |
| 20260506123945 | 49 | 45 | 1.7 | 2.6 | 0.00 | 0.00 | 0.00 | 79 | 1017.8 |
| 20260506123443 | 49 | 34 | 2.6 | 2.6 | 0.00 | 0.00 | 0.00 | 79 | 1017.7 |
| 20260506122940 | 49 | 41 | 0.9 | 1.7 | 0.00 | 0.00 | 0.00 | 80 | 1017.6 |
| 20260506122436 | 48 | 89 | 5.2 | 7.0 | 0.00 | 0.00 | 0.00 | 81 | 1017.7 |
| 20260506121935 | 48 | 82 | 4.3 | 7.0 | 0.00 | 0.00 | 0.00 | 82 | 1017.6 |
| 20260506121431 | 48 | 86 | 1.7 | 2.6 | 0.00 | 0.00 | 0.00 | 82 | 1017.5 |
| 20260506120928 | 48 | 63 | 4.3 | 5.2 | 0.00 | 0.00 | 0.00 | 82 | 1017.4 |
| 20260506120426 | 48 | 116 | 1.7 | 3.5 | 0.00 | 0.00 | 0.00 | 81 | 1017.1 |
| 20260506115923 | 48 | 58 | 2.6 | 3.5 | 0.00 | 0.00 | 0.00 | 81 | 1017.4 |
| 20260506115421 | 48 | 146 | 4.3 | 7.0 | 0.00 | 0.00 | 0.00 | 81 | 1017.1 |
| 20260506114919 | 48 | 30 | 3.5 | 5.2 | 0.00 | 0.00 | 0.00 | 81 | 1017.4 |
| 20260506114416 | 48 | 9 | 0.9 | 0.9 | 0.00 | 0.00 | 0.00 | 81 | 1017.4 |
| 20260506113915 | 48 | 23 | 1.7 | 1.7 | 0.00 | 0.00 | 0.00 | 81 | 1017.3 |
| 20260506113412 | 48 | 38 | 0.0 | 0.9 | 0.00 | 0.00 | 0.00 | 81 | 1017.3 |
| 20260506112909 | 48 | 21 | 1.7 | 2.6 | 0.00 | 0.00 | 0.00 | 81 | 1017.4 |
| 20260506112406 | 48 | 11 | 1.7 | 1.7 | 0.00 | 0.00 | 0.00 | 81 | 1017.4 |
| 20260506111903 | 48 | 65 | 1.7 | 5.2 | 0.00 | 0.00 | 0.00 | 81 | 1017.7 |
| 20260506111401 | 48 | 18 | 0.0 | 0.9 | 0.00 | 0.00 | 0.00 | 81 | 1017.5 |
| 20260506110858 | 48 | 124 | 2.6 | 3.5 | 0.00 | 0.00 | 0.00 | 81 | 1017.5 |
| 20260506110356 | 48 | 32 | 0.9 | 1.7 | 0.00 | 0.00 | 0.00 | 81 | 1017.5 |
| 20260506105852 | 48 | 20 | 1.7 | 2.6 | 0.00 | 0.00 | 0.00 | 81 | 1017.4 |
| 20260506105349 | 48 | 84 | 0.9 | 2.6 | 0.00 | 0.00 | 0.00 | 81 | 1017.1 |
| 20260506104846 | 48 | 146 | 1.7 | 1.7 | 0.00 | 0.00 | 0.00 | 81 | 1016.9 |
| 20260506104344 | 48 | 12 | 1.7 | 1.7 | 0.00 | 0.00 | 0.00 | 81 | 1016.8 |
| 20260506103841 | 48 | 38 | 2.6 | 2.6 | 0.00 | 0.00 | 0.00 | 81 | 1016.7 |
| 20260506103339 | 48 | 27 | 0.0 | 0.0 | 0.00 | 0.00 | 0.00 | 81 | 1016.7 |
| 20260506102836 | 48 | 72 | 1.7 | 2.6 | 0.00 | 0.00 | 0.00 | 81 | 1016.6 |
| 20260506102334 | 48 | 73 | 0.9 | 0.9 | 0.00 | 0.00 | 0.00 | 81 | 1016.7 |
| 20260506101831 | 48 | 45 | 1.7 | 2.6 | 0.00 | 0.00 | 0.00 | 80 | 1016.6 |
| 20260506101327 | 48 | 55 | 0.9 | 0.9 | 0.00 | 0.00 | 0.00 | 80 | 1016.8 |
| 20260506100825 | 48 | 29 | 0.0 | 0.0 | 0.00 | 0.00 | 0.00 | 80 | 1016.6 |
| 20260506100323 | 48 | 15 | 0.9 | 0.9 | 0.00 | 0.00 | 0.00 | 80 | 1016.3 |
| 20260506095821 | 48 | 53 | 2.6 | 2.6 | 0.00 | 0.00 | 0.00 | 80 | 1016.5 |
| 20260506095318 | 48 | 15 | 0.0 | 0.0 | 0.00 | 0.00 | 0.00 | 80 | 1016.4 |
| 20260506094815 | 48 | 26 | 0.9 | 1.7 | 0.00 | 0.00 | 0.00 | 80 | 1016.4 |
| 20260506094313 | 48 | 32 | 1.7 | 1.7 | 0.00 | 0.00 | 0.00 | 80 | 1016.4 |
| 20260506093811 | 48 | 7 | 0.9 | 0.9 | 0.00 | 0.00 | 0.00 | 80 | 1016.2 |
| 20260506093308 | 49 | 25 | 0.9 | 1.7 | 0.00 | 0.00 | 0.00 | 79 | 1016.0 |
| 20260506092806 | 49 | 21 | 0.9 | 0.9 | 0.00 | 0.00 | 0.00 | 79 | 1016.0 |
| 20260506092305 | 48 | 41 | 1.7 | 1.7 | 0.00 | 0.00 | 0.00 | 79 | 1015.5 |
| 20260506091800 | 48 | 109 | 3.5 | 5.2 | 0.00 | 0.00 | 0.00 | 79 | 1015.3 |
| 20260506091258 | 48 | 33 | 3.5 | 5.2 | 0.00 | 0.00 | 0.00 | 79 | 1015.2 |
| 20260506090756 | 48 | 27 | 0.9 | 1.7 | 0.00 | 0.00 | 0.00 | 79 | 1014.9 |
| 20260506090252 | 48 | 47 | 0.9 | 2.6 | 0.00 | 0.00 | 0.00 | 79 | 1014.6 |
| 20260506085749 | 48 | 16 | 0.0 | 0.0 | 0.00 | 0.00 | 0.00 | 79 | 1014.7 |
| 20260506085245 | 48 | 20 | 0.0 | 0.0 | 0.00 | 0.00 | 0.00 | 79 | 1014.8 |
| 20260506084742 | 48 | 44 | 2.6 | 2.6 | 0.00 | 0.00 | 0.00 | 79 | 1014.7 |
| 20260506084238 | 48 | 17 | 0.0 | 0.9 | 0.00 | 0.00 | 0.00 | 79 | 1014.8 |
| 20260506083736 | 48 | 40 | 0.9 | 0.9 | 0.00 | 0.00 | 0.00 | 79 | 1014.7 |
| 20260506083233 | 49 | 13 | 0.9 | 0.9 | 0.00 | 0.00 | 0.00 | 78 | 1014.5 |
| 20260506082730 | 49 | 19 | 0.9 | 1.7 | 0.00 | 0.00 | 0.00 | 77 | 1014.3 |